User: anonymous   Login
Location: �perlecques
(50.8057°N, 2.1521°E)
Time: 05:29:34
(UTC+00:00)
Language:

Oscar 11 - Orbit

View from above orbital plane
View from above orbital plane
View from above satellite
View from above satellite

Ground track
Ground track

The orbit data is extracted from the following two-line orbital elements,

1 14781U 84021B   21265.39930865  .00000151  00000-0  24446-4 0  9996
2 14781  97.5986 260.4929 0009783 117.9167 242.3039 14.83327099   300
Epoch (UTC): 22 September 2021 09:35:00
Eccentricity: 0.0009783
inclination: 97.5986°
perigee height: 612 km
apogee height: 625 km
right ascension of ascending node: 260.4929°
argument of perigee: 117.9167°
revolutions per day: 14.83327099
mean anomaly at epoch: 242.3039°
orbit number at epoch: 30

The dashed part of the orbit path shows where the satellite is in the earth's shadow,  

DLR